Weather History for Campo, CA

Change the Weather History Date:

Friday, October 4, 2013

  Actual Average Record
Temperature  
Mean Temperature 57 °F 64 °F  
Max Temperature 74 °F 83 °F 101 °F (1980)
Min Temperature 40 °F 45 °F 32 °F (1957)
Degree Days  
Heating Degree Days 8 3  
Month to date heating degree days 24 12  
Since 1 July heating degree days 67 62  
Cooling Degree Days 0 2  
Month to date cooling degree days 0 8  
Year to date cooling degree days 907 819  
Growing Degree Days 8 (Base 50)    
Moisture  
Dew Point 19 °F    
Average Humidity 51    
Maximum Humidity 93    
Minimum Humidity 9    
Precipitation  
Precipitation 0.00 in 0.02 in 0.46 in (1966)
Month to date precipitation 0.00 0.06  
Year to date precipitation 6.72 11.57  
Since 1 July precipitation 1.94 1.42  
Snow  
Snow 0.00 in - - ()
Month to date snowfall 0.0  
Year to date snowfall 0.0  
Since 1 July snowfall 0.0  
Snow Depth 0.00 in    
Sea Level Pressure  
Sea Level Pressure 29.91 in    
Wind  
Wind Speed 16 mph (NE)    
Max Wind Speed 35 mph    
Max Gust Speed 44 mph    
T = Trace of Precipitation, MM = Missing Value Source: NWS Daily Summary

Daily Weather History Graph

Daily Weather History Graph

Search for Another Location

Airport:

Trip Planner

Search our weather history database for the weather conditions in past years. The results will help you decide how hot, cold, wet, or windy it might be!

Date:

Astronomy

Oct. 04, 2013 Rise Set
Actual Time 6:42 AM PDT 6:26 PM PDT
Civil Twilight 6:17 AM PDT 6:50 PM PDT
Nautical Twilight 5:49 AM PDT 7:19 PM PDT
Astronomical Twilight 5:20 AM PDT 7:47 PM PDT
Moon 6:21 AM PDT (10/4) 6:13 PM PDT (10/4)
Length of Visible Light 12h 33m
Length of Day
11h 43m
Waning Crescent, 0% of the Moon is Illuminated
Oct 4
Waning Crescent
Oct 4
New
Oct 11
First Quarter
Oct 18
Full
Oct 26
Last Quarter

Hourly Weather History & Observations

Time (PDT) Temp. Windchill Dew Point Humidity Pressure Visibility Wind Dir Wind Speed Gust Speed Precip Events Conditions
12:52 AM 46.9 °F - 45.0 °F 93% 29.84 in - Calm Calm - N/A   Unknown
1:52 AM 46.9 °F - 44.1 °F 90% 29.84 in - NNE 3.5 mph - N/A   Unknown
2:52 AM 44.1 °F 42.5 °F 39.9 °F 85% 29.83 in - NE 3.5 mph - N/A   Unknown
3:52 AM 45.0 °F - 39.9 °F 82% 29.83 in - Calm Calm - N/A   Unknown
4:52 AM 42.1 °F 39.2 °F 37.0 °F 82% 29.83 in - North 4.6 mph - N/A   Unknown
5:52 AM 53.1 °F - 30.9 °F 43% 29.83 in - ENE 12.7 mph - N/A   Unknown
6:52 AM 60.1 °F - 18.0 °F 20% 29.85 in - ENE 13.8 mph - N/A   Unknown
7:52 AM 64.0 °F - 12.0 °F 13% 29.88 in - ENE 12.7 mph 24.2 mph N/A   Unknown
8:52 AM 66.9 °F - 10.9 °F 11% 29.90 in - ENE 25.3 mph 35.7 mph N/A   Unknown
9:52 AM 68.0 °F - 10.9 °F 11% 29.92 in - ENE 29.9 mph 39.1 mph N/A   Unknown
10:52 AM 69.1 °F - 12.0 °F 11% 29.93 in - ENE 24.2 mph 41.4 mph N/A   Unknown
11:52 AM 72.0 °F - 12.0 °F 10% 29.94 in - NE 27.6 mph 38.0 mph N/A   Unknown
12:52 PM 73.0 °F - 12.9 °F 10% 29.93 in - ENE 25.3 mph 35.7 mph N/A   Unknown
1:52 PM 73.9 °F - 12.9 °F 10% 29.93 in - ENE 18.4 mph 33.4 mph N/A   Unknown
2:52 PM 73.9 °F - 12.0 °F 9% 29.92 in - ENE 25.3 mph 34.5 mph N/A   Unknown
3:52 PM 73.9 °F - 12.9 °F 10% 29.92 in - NE 25.3 mph 34.5 mph N/A   Unknown
4:52 PM 72.0 °F - 12.9 °F 10% 29.94 in - NE 20.7 mph 28.8 mph N/A   Unknown
5:52 PM 70.0 °F - 10.9 °F 10% 29.94 in - NE 23.0 mph 29.9 mph N/A   Unknown
6:52 PM 66.9 °F - 10.0 °F 11% 29.95 in - NE 17.3 mph 25.3 mph N/A   Unknown
7:52 PM 66.0 °F - 10.9 °F 12% 29.96 in - NE 17.3 mph 26.5 mph N/A   Unknown
8:52 PM 64.9 °F - 14.0 °F 14% 29.97 in - ENE 19.6 mph 26.5 mph N/A   Unknown
9:52 PM 64.0 °F - 12.9 °F 14% 29.99 in - NE 19.6 mph 26.5 mph N/A   Unknown
10:52 PM 64.0 °F - 12.9 °F 14% 29.99 in - ENE 23.0 mph 29.9 mph N/A   Unknown
11:52 PM 63.0 °F - 14.0 °F 15% 30.00 in - ENE 21.9 mph 33.4 mph N/A   Unknown